KCVG Airport Diagram

We have created a template for each of the higher traffic airports in the vZID airspace. They include KCMH, KCRW, KCVG, KDAY, KIND, KLEX and KSDF. You wil find usefull information including the airport diagram, weather, and specific airport procedures.

KCVG Weather

[Source: ADDS]
METAR
KCVG 230152Z 06010KT 8SM BKN075 OVC090 05/M01 A3029 RMK AO2 SLP260 T00501006 =
KCVG 222343Z 2300/2406 08008KT P6SM BKN090 OVC150 FM230800 09005KT P6SM VCSH OVC045 FM231200 10005KT P6SM -SHRA OVC015 FM231700 14012KT P6SM VCSH OVC009 FM232200 16014KT P6SM -SHRA OVC018 WS020/20050KT FM240500 20014G23KT P6SM -SHRA OVC022 WS020/22050KT
TAF
KCVG 222343Z 2300/2406 08008KT P6SM BKN090 OVC150 FM230800 09005KT P6SM VCSH OVC045 FM231200 10005KT P6SM -SHRA OVC015 FM231700 14012KT P6SM VCSH OVC009 FM232200 16014KT P6SM -SHRA OVC018 WS020/20050KT FM240500 20014G23KT P6SM -SHRA OVC022 WS020/22050KT =

KCVG Operations

Calm Wind Configuration is Landing runways 36C and 36R, departing runway 27.

You can expect  this configuration up to and including a 10 knot tailwind.

The Center runway is the old 18R/36L in the default scenery. Additionally, runway 9/27 was lengthened to 12,000 feet when the west runway (18R/36L) was added.

Where parallel taxiways exist, inner taxiway is used by inbound traffic and outer taxiway is used by outbound traffic.

FDX & UPS use the ramp area at Terminal 1.

New Scenery is available at FlightSim.com.

On initial contact, arriving aircraft should notify the the controller which scenery they have.

 

JSN Epic template designed by JoomlaShine.com